Location: Duac?
(36.9744°N, 30.6500°E)
Time: 13:29:14
(UTC+00:00)

Milstar 3 - Pass Details

Date: 05 August 2024
Orbit: 1098 x 5146 km, 28.2° (Epoch: 11 September)

Event Time Altitude Azimuth Distance (km) Brightness Sun altitude
Rises 20:02:44 0° 264° (W) 3,904 6.0 -29.3°
Reaches altitude 10° 20:05:21 10° 256° (WSW) 3,004 5.2 -29.6°
Enters shadow 20:09:48 34° 219° (SW) 1,959 3.8 -30.1°
